Terug naar catalogus

FUSION 1

ActiefCommunicatieSSO
NORAD 62674·PAYLOAD·🇯🇵 Japan
Deze satellietnaam is nog niet bevestigd door officiële bronnen.

Gelanceerd Jan 14, 2025 vanaf Vandenberg Space Force Base

Loading…

Volgende Passages (komende 24 uur)

TLE

VersSource: Space-Track

Epoch: Sep 13, 2026, 16:20 UTC

1 62674U 25009BT  26256.68116425  .00009316  00000-0  30556-3 0  9996
2 62674  97.4009 338.9513 0004494  16.9880 343.1512 15.31826535150106

Volg FUSION 1 in realtime met AllMySat

Download on the App Store